SCP
1 1 1 1 1 1 1 0 0 0 0 1 1 1 1 0 0 0 0 0 0 0 0 0 0 0 0 0 0 0 0 0 0 0 0 0 0 0 0 0 0 0 0
1 1 1 1 1 1 1 0 0 0 0 1 1 1 1 0 0 0 0 0 0 0 0 0 0 0 0 0 0 0 0 0 0 0 0 0 0 0 0 0 0 0 0
1 1 1 1 1 1 1 1 0 0 0 0 1 1 0 0 0 0 0 0 0 0 0 0 0 0 0 0 0 0 0 0 0 0 0 0 0 0 0 0 0 0 0
1 1 1 1 1 1 1 1 0 0 0 0 0 0 0 0 0 0 0 0 0 0 0 0 0 0 0 0 0 0 0 0 0 0 0 0 0 0 0 0 0 0 0
1 1 1 1 1 1 1 1 1 1 1 0 0 0 0 0 0 0 0 0 0 0 0 0 0 0 0 0 0 0 0 0 0 0 0 0 0 0 0 0 0 0 0
1 1 1 1 1 1 1 1 1 1 1 1 0 0 0 0 0 0 0 0 0 0 0 0 0 0 0 0 0 0 0 0 0 0 0 0 0 0 0 0 0 0 0
1 1 1 1 1 1 1 1 1 1 1 1 0 0 0 0 0 0 0 0 0 0 0 0 0 0 0 0 0 0 0 0 0 0 0 0 0 0 0 0 0 0 0
1 1 1 1 1 1 1 1 1 1 1 0 0 0 0 0 0 0 0 0 0 0 0 0 0 0 0 0 0 0 0 0 0 0 0 0 0 0 0 0 0 0 0
1 1 1 1 1 1 1 1 1 1 0 0 0 0 0 0 0 0 0 0 0 0 0 0 0 0 0 0 0 0 0 0 0 0 0 0 0 0 0 0 0 0 0
1 1 1 1 1 1 1 1 1 0 0 0 0 0 0 0 0 0 0 0 0 0 0 0 0 0 0 0 0 0 0 0 0 0 0 0 0 0 0 0 0 0 0
1 1 1 1 1 1 1 1 1 0 0 0 0 0 0 0 0 0 0 0 0 0 0 0 0 0 0 0 0 0 0 0 0 0 0 0 0 0 0 0 0 0 0
1 1 1 1 1 1 1 1 0 0 0 0 0 0 0 0 0 0 0 0 0 0 0 0 0 0 0 0 0 0 0 0 0 0 0 0 0 0 0 0 0 0 0
1 1 1 1 1 1 0 0 0 0 0 0 0 0 0 0 0 0 0 0 0 0 0 0 0 0 0 0 0 0 0 0 0 0 0 0 0 0 0 0 0 0 0
1 1 1 1 0 0 0 0 0 0 0 0 0 0 0 0 0 0 0 0 0 0 0 0 0 0 0 0 0 0 0 0 0 0 0 0 0 0 0 0 0 0 0
1 1 1 0 0 0 0 0 0 0 0 0 0 0 0 0 0 0 0 0 0 0 0 0 0 0 0 0 0 0 0 0 0 0 0 0 0 0 0 0 0 0 0
1 1 0 0 0 0 0 0 0 0 0 0 0 0 0 0 0 0 0 0 0 0 0 0 0 0 0 0 0 0 0 0 0 0 0 0 0 0 0 0 0 0 0
1 1 0 0 0 0 0 0 0 0 0 0 0 0 0 0 0 0 0 0 0 0 0 0 0 0 0 0 0 0 0 0 0 0 0 0 0 0 0 0 0 0 0
1 0 0 0 0 0 0 0 0 0 0 0 0 0 0 0 0 0 0 0 0 0 0 0 0 0 0 0 0 0 0 0 0 0 0 0 0 0 0 0 0 0 0
0 0 0 0 0 0 0 0 0 0 0 0 0 0 0 0 0 0 0 0 0 0 0 0 0 0 0 0 0 0 0 0 0 0 0 0 0 0 0 0 0 0 0
0 0 0 0 0 0 0 0 0 0 0 0 0 0 0 0 0 0 0 0 0 0 0 0 0 0 0 0 0 0 0 0 0 0 0 0 0 0 0 0 0 0 0
0 0 0 0 0 0 0 0 0 0 0 0 0 0 0 0 0 0 0 0 0 0 0 0 0 0 0 0 0 0 0 0 0 0 0 0 0 0 0 0 0 0 0
0 0 0 0 0 0 0 0 0 0 0 0 0 0 0 0 0 0 0 0 0 0 0 0 0 0 0 0 0 0 0 0 0 0 0 0 0 0 0 0 0 0 0
0 0 0 0 0 0 0 0 0 0 0 0 0 0 0 0 0 0 0 0 0 0 0 0 0 0 0 0 0 0 0 0 0 0 0 0 0 0 0 0 0 0 0
0 0 0 0 0 0 0 0 0 0 0 0 0 0 0 0 0 0 0 0 0 0 0 0 0 0 0 0 0 0 0 0 0 0 0 0 0 0 0 0 0 0 0
0 0 0 0 0 0 0 0 0 0 0 0 0 0 0 0 0 0 0 0 0 0 0 0 0 0 0 0 0 0 0 0 0 0 0 0 0 0 0 0 0 0 0
0 0 0 0 0 0 0 0 0 0 0 0 0 0 0 0 0 0 0 0 0 0 0 0 0 0 0 0 0 0 0 0 0 0 0 0 0 0 0 0 0 0 0
Wind_Speed
5 4 4 4 3 3 3 3 2 2 2 2 2 2 3 3 3 2 2 3 3 3 3 3 3 2 2 1 0 0 1 2 3 1 2 2 3 3 4 4 5 5 5
6 5 5 4 4 4 3 3 3 2 2 2 2 2 3 3 3 4 3 3 4 4 5 5 5 4 4 2 1 1 1 2 3 4 2 1 2 2 3 3 4 5 5
6 6 5 5 5 4 4 3 3 3 3 3 3 3 3 3 3 4 3 4 4 5 5 6 6 6 5 3 3 1 1 2 3 4 3 1 1 1 2 2 4 3 5
6 6 6 5 4 4 4 3 3 3 3 3 3 4 4 4 4 3 3 4 4 5 6 6 7 7 6 5 4 3 3 2 2 3 3 2 2 1 1 1 2 1 2
6 6 6 5 4 4 4 3 3 3 4 3 4 4 3 4 4 4 3 4 4 5 5 6 8 10 12 9 6 5 4 3 3 2 3 3 2 1 0 0 2 2 2
6 6 6 5 5 5 4 4 4 4 4 4 5 5 6 6 7 8 5 4 4 5 5 4 6 8 9 11 12 12 10 6 4 3 3 3 2 1 1 1 1 1 1
6 6 6 5 5 4 4 5 5 5 5 5 6 6 7 7 9 9 8 4 5 5 6 5 6 7 6 5 7 9 11 12 9 6 5 4 3 2 2 1 1 1 1
7 6 6 6 5 5 5 5 5 4 4 5 5 6 5 7 9 8 8 5 6 6 6 6 7 7 8 6 7 7 7 7 7 6 5 4 4 3 3 2 1 1 1
7 6 6 6 5 5 6 5 5 5 5 5 5 5 5 6 8 7 5 4 5 6 7 8 7 7 9 7 5 6 5 4 5 6 5 3 2 3 3 2 2 1 1
6 6 5 5 6 6 5 5 5 4 5 5 5 5 5 5 7 8 6 2 4 5 5 6 9 8 8 8 5 4 4 3 2 2 2 1 1 2 3 3 3 2 1
7 7 6 6 6 6 5 5 4 5 5 5 5 5 5 5 6 8 8 3 3 4 4 4 4 7 7 7 6 4 2 2 1 0 2 2 2 2 2 3 3 2 2
7 7 7 6 6 6 5 4 4 4 5 4 4 4 4 4 5 6 7 7 6 4 4 4 3 4 5 5 4 5 5 3 1 1 2 2 2 2 1 2 1 1 0
8 7 6 6 5 6 5 4 4 3 3 3 3 3 4 3 3 5 5 7 7 4 3 4 3 2 1 1 3 5 4 3 2 2 2 1 1 1 1 0 0 0 1
8 6 6 6 6 5 3 3 2 1 1 2 2 3 3 3 3 2 1 3 3 3 2 2 1 1 2 1 1 1 1 2 2 2 2 1 1 1 1 1 1 1 0
7 6 6 6 6 5 4 4 3 3 2 1 1 2 3 3 2 1 1 1 1 2 0 1 1 1 1 1 0 1 1 2 2 2 2 2 2 2 1 1 1 2 1
7 6 5 5 5 6 6 5 9 7 7 8 7 5 4 5 5 5 5 4 4 3 1 0 0 0 1 1 1 1 1 2 2 2 2 2 2 2 2 1 2 2 2
6 6 5 5 5 6 6 6 5 5 7 8 7 8 7 6 5 4 3 3 2 1 0 0 0 1 1 1 1 1 1 1 1 1 2 2 2 2 2 1 1 2 2
5 5 5 5 5 5 5 5 5 6 5 4 3 4 6 5 4 2 2 1 0 1 1 0 0 1 1 1 2 2 1 1 1 1 2 2 2 2 2 2 2 2 3
5 4 4 4 4 4 5 5 5 5 5 5 5 4 4 4 2 1 0 1 1 1 0 0 1 1 1 1 1 1 1 1 2 2 2 2 2 3 2 3 2 2 2
4 4 4 4 4 4 4 4 5 5 5 5 5 5 4 4 3 3 2 2 1 0 0 1 1 1 1 1 1 1 1 1 2 2 2 2 2 3 3 3 3 3 2
4 5 4 3 3 3 3 3 4 4 5 4 4 5 6 4 3 3 3 2 1 0 1 1 0 0 1 1 1 1 2 2 2 2 3 3 3 3 3 3 3 3 3
4 4 4 3 2 2 2 2 3 3 4 5 5 5 6 3 2 2 2 2 1 1 1 0 0 1 1 1 1 2 2 2 3 3 3 3 3 3 3 3 3 3 3
4 4 4 3 2 2 2 2 3 3 3 4 4 4 4 3 2 2 2 2 1 1 1 1 0 1 2 2 2 3 3 3 3 3 4 4 4 4 3 3 4 4 3
4 4 5 4 3 3 3 2 2 3 3 3 3 4 4 3 2 1 1 1 1 1 1 1 1 3 4 3 3 4 4 3 4 3 4 5 6 4 4 4 4 4 4
3 4 4 4 4 3 3 3 3 3 3 3 3 3 3 3 3 2 2 1 1 1 1 2 2 3 4 4 4 4 3 3 3 3 4 5 6 5 5 5 4 4 4
3 3 3 3 3 3 2 3 3 3 3 3 3 3 2 3 3 2 2 1 1 2 1 1 2 3 3 3 5 5 3 1 1 3 4 5 5 5 5 5 6 5 6
Wind_Direction
139 135 129 130 129 117 97 88 85 68 38 48 42 40 40 33 28 29 33 24 20 12 7 7 1 351 341 339 352 76 128 139 141 125 99 89 83 99 119 127 123 117 109
136 129 122 117 111 107 98 88 84 82 65 54 51 50 53 44 34 35 36 36 32 29 20 16 12 14 12 3 9 44 94 123 142 142 127 107 86 112 133 138 126 124 124
131 127 116 109 105 100 94 88 80 71 61 55 58 58 52 51 49 42 39 44 43 42 34 27 19 18 14 14 18 27 71 98 117 131 133 127 96 99 95 102 101 108 122
128 120 116 113 110 106 99 93 88 81 69 62 63 61 52 49 45 40 50 54 52 52 51 47 40 34 21 14 34 35 56 87 108 119 124 116 91 72 98 122 116 107 112
127 124 121 120 117 110 105 99 92 85 81 68 68 65 63 58 36 25 46 64 60 65 67 69 66 61 52 43 45 42 52 62 77 94 103 99 88 95 99 184 131 144 124
128 125 121 120 116 110 107 99 90 82 77 70 63 58 55 47 29 34 40 58 66 62 60 68 79 66 60 58 59 57 54 59 60 74 82 88 77 54 4 16 125 144 128
127 124 122 119 114 112 107 96 88 83 82 77 73 70 66 42 33 36 37 62 71 60 52 48 56 58 51 56 67 64 57 54 60 70 71 67 64 31 8 21 39 57 107
129 125 120 116 111 105 100 94 87 85 84 81 80 78 73 47 32 37 34 74 73 66 59 57 57 49 37 44 68 69 63 51 54 70 69 60 59 26 8 13 21 76 87
131 129 126 123 120 114 108 102 98 95 91 87 84 82 75 52 32 35 39 89 86 76 67 56 54 51 29 39 72 80 78 72 71 81 89 95 79 38 24 22 11 38 86
128 128 126 124 124 117 113 112 109 105 102 98 91 85 81 66 38 32 26 84 98 94 85 73 56 46 35 33 51 67 67 47 54 82 89 63 63 54 43 36 19 24 37
128 127 125 121 122 119 117 117 118 112 107 105 102 93 82 71 56 43 38 47 67 92 93 84 63 44 41 35 37 50 29 339 322 87 103 90 71 56 49 44 33 37 37
126 126 125 127 130 122 122 119 116 119 123 121 120 113 98 83 64 56 54 53 51 65 80 89 85 57 40 34 34 18 7 358 359 68 70 59 53 52 55 52 41 37 61
131 132 128 123 117 125 131 130 135 149 151 147 145 134 120 110 89 74 74 67 59 63 69 92 107 79 27 35 26 10 7 6 13 30 53 64 81 87 75 46 284 279 308
138 135 134 132 127 118 119 121 118 118 145 148 140 131 124 118 103 84 103 101 103 98 102 123 164 250 284 334 15 349 359 24 8 360 19 24 34 47 33 18 327 284 271
144 144 143 138 130 113 90 61 75 63 57 69 96 106 121 116 101 106 115 86 66 57 354 173 179 187 209 230 124 73 42 33 10 357 5 19 21 21 6 360 346 337 343
153 154 154 151 146 142 129 100 56 68 75 75 78 88 86 105 120 98 74 56 44 34 15 255 131 70 48 51 45 58 59 31 0 354 1 9 5 357 347 349 353 343 340
162 162 158 157 160 159 153 146 135 92 67 68 80 94 107 117 107 94 68 26 349 6 271 252 76 75 39 28 35 47 52 43 349 341 351 1 348 339 335 334 343 343 340
162 157 161 164 167 166 164 163 159 155 150 134 109 116 127 128 117 97 69 38 197 195 242 222 113 81 73 44 34 38 36 40 2 347 353 350 340 335 336 336 350 359 338
169 166 168 166 169 169 168 165 162 163 157 150 147 150 164 155 157 175 220 246 245 204 173 105 51 51 50 62 45 19 12 18 20 4 4 354 342 335 338 338 338 339 321
167 162 167 175 176 172 174 170 165 164 162 159 161 157 164 178 180 175 195 239 266 297 40 61 41 33 47 50 54 1 355 23 24 352 354 347 339 337 335 328 330 331 321
164 160 174 189 182 171 176 180 171 168 168 160 152 150 170 191 182 176 177 186 207 32 35 12 340 26 74 72 33 17 13 19 16 354 349 342 339 335 329 328 327 327 329
171 168 174 177 172 167 175 171 166 164 156 148 143 147 166 197 187 167 158 152 158 164 148 244 343 44 59 45 43 36 36 26 6 351 342 333 326 323 325 323 323 326 329
173 168 165 162 160 154 176 161 154 149 142 141 144 150 164 192 185 150 152 146 149 163 154 140 75 59 59 47 56 59 41 26 4 1 351 334 323 318 317 318 318 323 321
174 167 163 165 168 172 175 164 155 149 143 147 155 155 153 158 156 139 139 137 148 138 118 99 74 64 63 62 62 66 56 33 3 359 348 316 309 312 316 312 309 314 314
175 170 168 170 168 166 159 155 150 146 146 148 147 144 147 156 163 162 160 156 148 115 100 101 95 83 80 81 78 82 82 64 42 353 325 308 306 310 314 316 317 317 313
174 172 161 149 138 139 147 154 156 155 156 161 155 146 157 166 166 172 169 151 155 136 117 107 99 101 101 96 101 109 115 78 9 329 311 299 301 314 324 318 319 317 313